FW1945 Weather Reports


time (UTC)temp
F
wind
direction
speed
knots
gust
knots
rain 1hr
in
rain 24hr
in
rain mn
in
humidity
%
barometer
mb
20260507223051 75 305 3.5 10.4 0.00 0.00 0.00 29 1014.6
20260507221537 74 305 4.3 12.2 0.00 0.00 0.00 29 1014.7
20260507220117 75 310 3.5 13.9 0.00 0.00 0.00 30 1014.9
20260507214536 76 290 3.5 11.3 0.00 0.00 0.00 31 1015.0
20260507213038 76 309 1.7 9.6 0.00 0.00 0.00 33 1015.0
20260507210110 76 347 3.5 13.0 0.00 0.00 0.00 33 1015.5
20260507204535 76 324 2.6 9.6 0.00 0.00 0.00 34 1015.7
20260507201540 74 335 2.6 12.2 0.00 0.00 0.00 34 1015.8
20260507194536 71 307 3.5 9.6 0.00 0.00 0.00 39 1016.2
20260507191534 70 324 2.6 12.2 0.00 0.00 0.00 41 1016.4
20260507190035 69 324 4.3 12.2 0.00 0.00 0.00 43 1016.7
20260507184534 68 355 3.5 13.0 0.00 0.00 0.00 46 1016.9
20260507183056 68 14 3.5 10.4 0.00 0.00 0.00 48 1017.1
20260507181538 67 26 2.6 7.8 0.00 0.00 0.00 52 1017.2
20260507180033 65 28 4.3 12.2 0.00 0.00 0.00 54 1017.3
20260507174534 64 7 2.6 8.7 0.00 0.00 0.00 56 1017.4
20260507173034 64 21 2.6 8.7 0.00 0.00 0.00 59 1017.7
20260507171539 63 348 2.6 10.4 0.00 0.00 0.00 60 1017.7
20260507170040 62 12 2.6 9.6 0.00 0.00 0.00 62 1017.8
20260507164538 61 11 3.5 12.2 0.00 0.00 0.00 64 1017.9
20260507161539 59 304 0.9 5.2 0.00 0.00 0.00 67 1018.1
20260507153042 56 192 0.0 6.1 0.00 0.00 0.00 77 1018.6
20260507151541 55 131 1.7 5.2 0.00 0.00 0.00 79 1018.6
20260507151537 54 195 1.7 6.1 0.00 0.00 0.00 80 1018.7
20260507144538 53 198 2.6 5.2 0.00 0.00 0.00 80 1018.5
20260507143151 53 243 0.9 3.5 0.00 0.00 0.00 79 1018.5
20260507141535 52 172 1.7 4.3 0.00 0.00 0.00 80 1018.4
20260507134612 53 75 1.7 7.0 0.00 0.00 0.00 77 1018.1
20260507133034 54 343 1.7 7.8 0.00 0.00 0.00 76 1017.9
20260507131537 54 301 4.3 10.4 0.00 0.00 0.00 76 1017.8
20260507130035 54 301 5.2 13.9 0.00 0.00 0.00 76 1017.9
20260507124539 54 305 5.2 11.3 0.00 0.00 0.00 76 1017.9
20260507123031 53 316 2.6 11.3 0.00 0.00 0.00 78 1018.0
20260507121536 54 314 1.7 7.8 0.00 0.00 0.00 78 1017.9
20260507120036 53 300 1.7 7.0 0.00 0.00 0.00 77 1017.6
20260507114533 54 288 1.7 10.4 0.00 0.00 0.00 76 1017.6
20260507113029 55 278 3.5 9.6 0.00 0.00 0.00 76 1017.4
20260507111530 55 277 2.6 8.7 0.00 0.00 0.00 77 1017.3
20260507104535 55 267 1.7 7.0 0.00 0.00 0.00 75 1017.0
20260507100049 57 313 3.5 13.0 0.00 0.00 0.00 74 1017.1
20260507094535 57 304 3.5 7.8 0.00 0.00 0.00 76 1017.2
20260507093037 55 314 2.6 9.6 0.00 0.00 0.00 81 1017.2
20260507091535 53 347 0.9 4.3 0.00 0.00 0.00 83 1017.3
20260507090038 53 260 0.0 3.5 0.00 0.00 0.00 83 1017.2
20260507084644 54 240 0.0 2.6 0.00 0.00 0.00 82 1017.1
20260507083038 55 323 0.0 1.7 0.00 0.00 0.00 80 1017.1
20260507081537 56 292 0.0 0.9 0.00 0.00 0.00 76 1017.1
20260507080035 58 292 0.0 2.6 0.00 0.00 0.00 74 1017.2
20260507074609 59 335 1.7 6.1 0.00 0.00 0.00 74 1017.2
20260507073038 59 319 1.7 6.1 0.00 0.00 0.00 74 1017.1
20260507071545 58 280 1.7 6.1 0.00 0.00 0.00 76 1017.1
20260507070035 57 283 0.9 6.1 0.00 0.00 0.00 77 1017.1
20260507064537 58 281 0.0 4.3 0.00 0.00 0.00 75 1017.2
20260507063038 59 220 0.0 2.6 0.00 0.00 0.00 73 1017.2
20260507061535 60 259 0.0 3.5 0.00 0.00 0.00 71 1017.3
20260507060053 61 287 0.9 4.3 0.00 0.00 0.00 70 1017.4
20260507054535 61 289 1.7 8.7 0.00 0.00 0.00 70 1017.6
20260507053036 61 284 1.7 7.0 0.00 0.00 0.00 68 1017.7
20260507051535 61 246 0.0 3.5 0.00 0.00 0.00 67 1017.7
20260507050036 59 255 1.7 7.8 0.00 0.00 0.00 69 1017.7
20260507044607 58 245 0.9 6.1 0.00 0.00 0.00 68 1017.6
20260507043035 60 237 0.0 3.5 0.00 0.00 0.00 65 1017.6
20260507041534 61 210 0.0 3.5 0.00 0.00 0.00 62 1017.4
20260507040055 62 268 0.0 5.2 0.00 0.00 0.00 60 1017.2
20260507034557 65 17 0.0 2.6 0.00 0.00 0.00 56 1017.1
20260507034545 66 343 0.0 7.0 0.00 0.00 0.00 53 1017.0
20260507031540 66 261 1.7 7.0 0.00 0.00 0.00 54 1016.9
20260507030039 66 286 0.0 5.2 0.00 0.00 0.00 54 1016.9
20260507024539 66 255 0.0 4.3 0.00 0.00 0.00 54 1016.8
20260507023040 67 32 0.9 7.0 0.00 0.00 0.00 52 1016.6
20260507021538 68 352 0.9 6.1 0.00 0.00 0.00 50 1016.5
20260507020037 68 292 1.7 6.1 0.00 0.00 0.00 49 1016.4
20260507013043 69 299 3.5 12.2 0.00 0.00 0.00 48 1016.3
20260507011655 70 306 1.7 7.8 0.00 0.00 0.00 47 1016.3
20260507004549 71 307 0.9 5.2 0.00 0.00 0.00 46 1016.2
20260507003038 71 283 1.7 6.1 0.00 0.00 0.00 44 1016.1
20260507000034 72 278 2.6 11.3 0.00 0.00 0.00 44 1015.9
20260506234537 73 295 2.6 9.6 0.00 0.00 0.00 43 1015.7
20260506233036 75 292 4.3 10.4 0.00 0.00 0.00 42 1015.6
20260506231539 77 295 1.7 10.4 0.00 0.00 0.00 41 1015.6
20260506230039 76 269 3.5 12.2 0.00 0.00 0.00 42 1015.6
20260506224542 76 268 3.5 13.0 0.00 0.00 0.00 42 1015.6